DMSP 5D-2 F13 DEB, 40462

Orbit data source: Space-Track

DMSP 5D-2 F13 DEB, 40462 is space debris in SSO originally from a launch on Fri, 24 Mar 1995 UTC launched from the Air Force Western Test Range (AFWTR). Debris objects in space refer to the collection of defunct objects orbiting the Earth. Examples of debris include non-operational satellites, rocket bodies, and fragments generated from explosions, collisions, or faulty payload assembly.

Loading next visibility...
Identifier
40462, 1995-015BE
Orbit
SSO
Country
Flag of USUS
Related business
Manufacturer
Unknown
Mission
Spacecraft
Bus & Motor
Unknown
Mass
Unknown
Launch date (UTC)
1995-03-24 (31 years ago)
Launch vehicle
Unknown
Launch site
Air Force Western Test Range (AFWTR)
Object type
Payload
Rocket body
Debris
Shape & HBR
Unknown shape, 0.1 m
Radar Cross Section
Small (<0.1 m²)

Expand to show TLE details & history
Last TLE update: 11 hours ago

TLE from 11 hours ago
0 DMSP 5D-2 F13 DEB
1 40462U 95015BE  25342.34578223  .00014972  00000-0  44447-2 0  9994
2 40462  98.9510  13.9164 0036851 215.7061 144.1663 14.42943105554236
Epoch: 2025-12-08T08:17Z
TLE epoch observation values (Epoch: 2025-12-08T08:17:55.584Z)
Latitude
0.00004°
Longitude
172.08865°
Altitude
773.058 km
Speed
7.456 km/s
True Right ascension
00h 55m 39s
True Declination
0° 00' 00"
Sunlit
Object was in daylight at epoch
Visualization orbit readout
Latitude
Unknown
Longitude
Unknown
Altitude
Unknown
Speed
Unknown
Apparent Right ascension
Unknown
Apparent Declination
Unknown
Sunlit
N/A
Visualization observer readout
Local Sidereal Time
17:42:43
Azimuth
Unknown
Elevation
Unknown
Doppler factor
Unknown
Orbital elements
Apogee altitude
772.184 km
Perigee altitude
719.678 km
Semi-major axis
7,124.068 km
Eccentricity
0.00369
Inclination
98.951°
RAAN
13.9164°
Arg. of periapsis
215.7061°
True anomaly
144.4126°
Mean anomaly
144.1663°
Eccentric anomaly
144.28954°
Mean motion
3.60953 °/min
Orbital period
99.74 mins
BSTAR
0.0044447
Loading maneuver chart data...
Computing Atmospheric mass density...

Documentation

Showing up to 5 results
|